Time,TemperatureF,DewpointF,PressureIn,WindDirection,WindDirectionDegrees,WindSpeedMPH,WindSpeedGustMPH,Humidity,HourlyPrecipIn,Conditions,Clouds,dailyrainin,SoftwareType,DateUTC
2013-11-02 00:00:00,41.2,23.0,30.06,North,0,7.0,7.0,48,0.00,,,0.00,VWS V14.01,2013-11-02 05:00:00,
2013-11-02 00:05:00,41.3,22.1,30.06,NNW,330,2.0,7.0,46,0.00,,,0.00,VWS V14.01,2013-11-02 05:05:00,
2013-11-02 00:10:00,41.6,23.4,30.06,North,354,2.0,7.0,48,0.00,,,0.00,VWS V14.01,2013-11-02 05:10:00,
2013-11-02 00:15:00,41.8,23.6,30.06,North,354,8.0,8.0,48,0.00,,,0.00,VWS V14.01,2013-11-02 05:15:00,
2013-11-02 00:20:00,42.1,21.8,30.05,North,359,9.0,9.0,44,0.00,,,0.00,VWS V14.01,2013-11-02 05:20:00,
2013-11-02 00:25:00,41.9,23.2,30.05,North,354,8.0,12.0,47,0.00,,,0.00,VWS V14.01,2013-11-02 05:25:00,
2013-11-02 00:30:00,41.8,23.1,30.05,North,359,2.0,12.0,47,0.00,,,0.00,VWS V14.01,2013-11-02 05:30:00,
2013-11-02 00:35:00,41.5,23.3,30.05,North,0,3.0,11.0,48,0.00,,,0.00,VWS V14.01,2013-11-02 05:35:00,
2013-11-02 00:40:00,41.3,23.1,30.05,NNW,343,5.0,11.0,48,0.00,,,0.00,VWS V14.01,2013-11-02 05:40:00,
2013-11-02 00:45:00,40.9,22.7,30.05,North,354,6.0,11.0,48,0.00,,,0.00,VWS V14.01,2013-11-02 05:45:00,
2013-11-02 00:50:00,40.8,23.1,30.06,North,354,7.0,8.0,49,0.00,,,0.00,VWS V14.01,2013-11-02 05:50:00,
2013-11-02 00:55:00,40.8,23.6,30.06,North,359,5.0,10.0,50,0.00,,,0.00,VWS V14.01,2013-11-02 05:55:00,
2013-11-02 01:00:00,40.6,22.5,30.06,North,0,3.0,10.0,48,0.00,,,0.00,VWS V14.01,2013-11-02 06:00:00,
2013-11-02 01:05:00,40.3,24.1,30.06,NNW,347,4.0,6.0,52,0.00,,,0.00,VWS V14.01,2013-11-02 06:05:00,
2013-11-02 01:10:00,40.1,23.9,30.06,NNW,346,3.0,7.0,52,0.00,,,0.00,VWS V14.01,2013-11-02 06:10:00,
2013-11-02 01:15:00,39.6,23.9,30.06,NNW,344,1.0,7.0,53,0.00,,,0.00,VWS V14.01,2013-11-02 06:15:00,
2013-11-02 01:20:00,39.2,24.4,30.07,NNW,344,0.0,1.0,55,0.00,,,0.00,VWS V14.01,2013-11-02 06:20:00,
2013-11-02 01:25:00,38.5,25.0,30.07,NNW,344,0.0,1.0,58,0.00,,,0.00,VWS V14.01,2013-11-02 06:25:00,
2013-11-02 01:30:00,37.9,24.9,30.07,NNW,344,0.0,1.0,59,0.00,,,0.00,VWS V14.01,2013-11-02 06:30:00,
2013-11-02 01:35:00,37.2,24.6,30.07,NNW,344,1.0,2.0,60,0.00,,,0.00,VWS V14.01,2013-11-02 06:35:00,
2013-11-02 01:40:00,36.6,24.8,30.07,NNW,344,0.0,2.0,62,0.00,,,0.00,VWS V14.01,2013-11-02 06:40:00,
2013-11-02 01:45:00,36.5,24.3,30.07,NNW,344,0.0,2.0,61,0.00,,,0.00,VWS V14.01,2013-11-02 06:45:00,
2013-11-02 01:50:00,36.5,24.3,30.08,NNW,344,0.0,2.0,61,0.00,,,0.00,VWS V14.01,2013-11-02 06:50:00,
2013-11-02 01:55:00,36.5,24.7,30.08,NNW,344,0.0,2.0,62,0.00,,,0.00,VWS V14.01,2013-11-02 06:55:00,
2013-11-02 02:00:00,36.6,24.0,30.08,NNW,346,0.0,3.0,60,0.00,,,0.00,VWS V14.01,2013-11-02 07:00:00,
2013-11-02 02:05:00,36.9,24.3,30.08,NNW,346,0.0,3.0,60,0.00,,,0.00,VWS V14.01,2013-11-02 07:05:00,
2013-11-02 02:10:00,36.8,24.6,30.08,NNW,343,0.0,3.0,61,0.00,,,0.00,VWS V14.01,2013-11-02 07:10:00,
2013-11-02 02:15:00,36.3,24.9,30.08,NNW,343,2.0,3.0,63,0.00,,,0.00,VWS V14.01,2013-11-02 07:15:00,
2013-11-02 02:20:00,36.2,25.2,30.10,NNW,343,2.0,3.0,64,0.00,,,0.00,VWS V14.01,2013-11-02 07:20:00,
2013-11-02 02:25:00,35.6,26.1,30.10,NNW,343,1.0,3.0,68,0.00,,,0.00,VWS V14.01,2013-11-02 07:25:00,
2013-11-02 02:30:00,35.2,26.1,30.10,NNW,343,2.0,3.0,69,0.00,,,0.00,VWS V14.01,2013-11-02 07:30:00,
2013-11-02 02:35:00,35.2,25.7,30.10,NNW,343,0.0,2.0,68,0.00,,,0.00,VWS V14.01,2013-11-02 07:35:00,
2013-11-02 02:40:00,35.3,26.2,30.10,NNW,343,2.0,2.0,69,0.00,,,0.00,VWS V14.01,2013-11-02 07:40:00,
2013-11-02 02:45:00,35.3,26.2,30.10,NNW,343,1.0,2.0,69,0.00,,,0.00,VWS V14.01,2013-11-02 07:45:00,
2013-11-02 02:50:00,35.3,26.2,30.10,NNW,343,0.0,2.0,69,0.00,,,0.00,VWS V14.01,2013-11-02 07:50:00,
2013-11-02 02:55:00,35.3,26.2,30.10,NNW,343,0.0,2.0,69,0.00,,,0.00,VWS V14.01,2013-11-02 07:55:00,
2013-11-02 03:00:00,35.3,25.8,30.10,NNW,343,0.0,2.0,68,0.00,,,0.00,VWS V14.01,2013-11-02 08:00:00,
2013-11-02 03:05:00,35.5,25.6,30.10,NNW,343,0.0,2.0,67,0.00,,,0.00,VWS V14.01,2013-11-02 08:05:00,
2013-11-02 03:10:00,35.5,26.0,30.10,NNW,343,2.0,2.0,68,0.00,,,0.00,VWS V14.01,2013-11-02 08:10:00,
2013-11-02 03:15:00,35.6,25.4,30.10,NNW,342,0.0,2.0,66,0.00,,,0.00,VWS V14.01,2013-11-02 08:15:00,
2013-11-02 03:20:00,35.6,25.4,30.11,NNW,342,1.0,2.0,66,0.00,,,0.00,VWS V14.01,2013-11-02 08:20:00,
2013-11-02 03:25:00,35.8,25.6,30.11,NNW,343,0.0,2.0,66,0.00,,,0.00,VWS V14.01,2013-11-02 08:25:00,
2013-11-02 03:30:00,35.9,25.7,30.11,NNW,343,0.0,2.0,66,0.00,,,0.00,VWS V14.01,2013-11-02 08:30:00,
2013-11-02 03:35:00,35.9,26.0,30.11,NNW,343,1.0,2.0,67,0.00,,,0.00,VWS V14.01,2013-11-02 08:35:00,
2013-11-02 03:40:00,35.8,25.6,30.11,NNW,343,1.0,2.0,66,0.00,,,0.00,VWS V14.01,2013-11-02 08:40:00,
2013-11-02 03:45:00,36.2,25.2,30.11,NNW,344,2.0,5.0,64,0.00,,,0.00,VWS V14.01,2013-11-02 08:45:00,
2013-11-02 03:50:00,36.5,25.5,30.10,NNW,346,2.0,5.0,64,0.00,,,0.00,VWS V14.01,2013-11-02 08:50:00,
2013-11-02 03:55:00,36.6,25.2,30.10,NNW,346,1.0,5.0,63,0.00,,,0.00,VWS V14.01,2013-11-02 08:55:00,
2013-11-02 04:00:00,36.8,25.4,30.10,NNW,347,2.0,5.0,63,0.00,,,0.00,VWS V14.01,2013-11-02 09:00:00,
2013-11-02 04:05:00,36.8,25.0,30.10,NNW,347,0.0,3.0,62,0.00,,,0.00,VWS V14.01,2013-11-02 09:05:00,
2013-11-02 04:10:00,36.6,25.6,30.10,NNW,347,0.0,3.0,64,0.00,,,0.00,VWS V14.01,2013-11-02 09:10:00,
2013-11-02 04:15:00,36.5,25.5,30.10,NNW,347,1.0,3.0,64,0.00,,,0.00,VWS V14.01,2013-11-02 09:15:00,
2013-11-02 04:20:00,36.3,25.3,30.11,NNW,347,2.0,2.0,64,0.00,,,0.00,VWS V14.01,2013-11-02 09:20:00,
2013-11-02 04:25:00,36.2,26.0,30.11,NNW,347,0.0,2.0,66,0.00,,,0.00,VWS V14.01,2013-11-02 09:25:00,
2013-11-02 04:30:00,36.0,26.1,30.11,NNW,347,0.0,2.0,67,0.00,,,0.00,VWS V14.01,2013-11-02 09:30:00,
2013-11-02 04:35:00,35.8,25.9,30.12,NNW,347,0.0,1.0,67,0.00,,,0.00,VWS V14.01,2013-11-02 09:35:00,
2013-11-02 04:40:00,35.5,26.0,30.12,NNW,347,0.0,2.0,68,0.00,,,0.00,VWS V14.01,2013-11-02 09:40:00,
2013-11-02 04:45:00,35.3,25.8,30.12,NNW,347,1.0,2.0,68,0.00,,,0.00,VWS V14.01,2013-11-02 09:45:00,
2013-11-02 04:50:00,35.3,25.8,30.13,NNW,347,0.0,2.0,68,0.00,,,0.00,VWS V14.01,2013-11-02 09:50:00,
2013-11-02 04:55:00,35.3,25.8,30.13,NNW,347,0.0,2.0,68,0.00,,,0.00,VWS V14.01,2013-11-02 09:55:00,
2013-11-02 05:00:00,35.3,25.8,30.13,NNW,347,0.0,2.0,68,0.00,,,0.00,VWS V14.01,2013-11-02 10:00:00,
2013-11-02 05:05:00,35.5,25.3,30.13,NNW,347,0.0,2.0,66,0.00,,,0.00,VWS V14.01,2013-11-02 10:05:00,
2013-11-02 05:10:00,34.9,25.4,30.13,NNW,332,3.0,5.0,68,0.00,,,0.00,VWS V14.01,2013-11-02 10:10:00,
2013-11-02 05:15:00,32.8,28.8,30.13,WSW,258,6.0,7.0,85,0.00,,,0.00,VWS V14.01,2013-11-02 10:15:00,
2013-11-02 05:20:00,32.4,28.4,30.15,WSW,256,0.0,2.0,85,0.00,,,0.00,VWS V14.01,2013-11-02 10:20:00,
2013-11-02 05:25:00,32.7,28.1,30.15,WSW,256,0.0,2.0,83,0.00,,,0.00,VWS V14.01,2013-11-02 10:25:00,
2013-11-02 05:30:00,33.1,27.3,30.15,WSW,256,1.0,2.0,79,0.00,,,0.00,VWS V14.01,2013-11-02 10:30:00,
2013-11-02 05:35:00,33.1,27.9,30.15,WSW,256,1.0,2.0,81,0.00,,,0.00,VWS V14.01,2013-11-02 10:35:00,
2013-11-02 05:40:00,33.1,27.6,30.15,WSW,256,2.0,2.0,80,0.00,,,0.00,VWS V14.01,2013-11-02 10:40:00,
2013-11-02 05:45:00,32.8,28.2,30.15,WSW,256,5.0,5.0,83,0.00,,,0.00,VWS V14.01,2013-11-02 10:45:00,
2013-11-02 05:50:00,31.8,29.5,30.15,WSW,256,2.0,2.0,91,0.00,,,0.00,VWS V14.01,2013-11-02 10:50:00,
2013-11-02 05:55:00,31.0,30.0,30.15,WSW,256,1.0,5.0,96,0.00,,,0.00,VWS V14.01,2013-11-02 10:55:00,
2013-11-02 06:00:00,30.9,30.4,30.15,WSW,256,0.0,5.0,98,0.00,,,0.00,VWS V14.01,2013-11-02 11:00:00,
2013-11-02 06:05:00,31.6,29.3,30.16,WSW,256,2.0,5.0,91,0.00,,,0.00,VWS V14.01,2013-11-02 11:05:00,
2013-11-02 06:10:00,31.6,29.5,30.16,WSW,256,0.0,5.0,92,0.00,,,0.00,VWS V14.01,2013-11-02 11:10:00,
2013-11-02 06:15:00,31.5,29.7,30.16,WSW,256,0.0,5.0,93,0.00,,,0.00,VWS V14.01,2013-11-02 11:15:00,
2013-11-02 06:20:00,31.6,29.5,30.17,WSW,256,0.0,0.0,92,0.00,,,0.00,VWS V14.01,2013-11-02 11:20:00,
2013-11-02 06:25:00,31.9,29.3,30.17,WSW,256,0.0,0.0,90,0.00,,,0.00,VWS V14.01,2013-11-02 11:25:00,
2013-11-02 06:30:00,31.8,29.5,30.17,WSW,256,0.0,0.0,91,0.00,,,0.00,VWS V14.01,2013-11-02 11:30:00,
2013-11-02 06:35:00,31.9,29.8,30.17,WSW,256,0.0,0.0,92,0.00,,,0.00,VWS V14.01,2013-11-02 11:35:00,
2013-11-02 06:40:00,31.5,29.7,30.17,WSW,256,1.0,5.0,93,0.00,,,0.00,VWS V14.01,2013-11-02 11:40:00,
2013-11-02 06:45:00,31.2,30.5,30.17,WSW,256,0.0,5.0,97,0.00,,,0.00,VWS V14.01,2013-11-02 11:45:00,
2013-11-02 06:50:00,31.5,29.7,30.17,WSW,256,2.0,2.0,93,0.00,,,0.00,VWS V14.01,2013-11-02 11:50:00,
2013-11-02 06:55:00,32.4,28.4,30.17,WSW,256,1.0,2.0,85,0.00,,,0.00,VWS V14.01,2013-11-02 11:55:00,
2013-11-02 07:00:00,32.5,29.1,30.17,WSW,256,0.0,2.0,87,0.00,,,0.00,VWS V14.01,2013-11-02 12:00:00,
2013-11-02 07:05:00,32.2,29.3,30.16,WSW,256,0.0,0.0,89,0.00,,,0.00,VWS V14.01,2013-11-02 12:05:00,
2013-11-02 07:10:00,32.1,29.2,30.16,WSW,256,0.0,0.0,89,0.00,,,0.00,VWS V14.01,2013-11-02 12:10:00,
2013-11-02 07:15:00,32.1,29.0,30.16,WSW,256,0.0,0.0,88,0.00,,,0.00,VWS V14.01,2013-11-02 12:15:00,
2013-11-02 07:20:00,31.9,29.3,30.17,WSW,256,0.0,0.0,90,0.00,,,0.00,VWS V14.01,2013-11-02 12:20:00,
2013-11-02 07:25:00,31.8,29.2,30.17,WSW,256,0.0,0.0,90,0.00,,,0.00,VWS V14.01,2013-11-02 12:25:00,
2013-11-02 07:30:00,32.1,28.7,30.17,WSW,256,0.0,0.0,87,0.00,,,0.00,VWS V14.01,2013-11-02 12:30:00,
2013-11-02 07:35:00,32.2,28.5,30.18,WSW,256,0.0,1.0,86,0.00,,,0.00,VWS V14.01,2013-11-02 12:35:00,
2013-11-02 07:40:00,32.1,29.0,30.18,WSW,256,0.0,1.0,88,0.00,,,0.00,VWS V14.01,2013-11-02 12:40:00,
2013-11-02 07:45:00,31.8,29.2,30.18,WSW,256,0.0,1.0,90,0.00,,,0.00,VWS V14.01,2013-11-02 12:45:00,
2013-11-02 07:50:00,31.5,29.5,30.17,WSW,256,0.0,0.0,92,0.00,,,0.00,VWS V14.01,2013-11-02 12:50:00,
2013-11-02 07:55:00,31.2,29.9,30.17,WSW,256,0.0,0.0,95,0.00,,,0.00,VWS V14.01,2013-11-02 12:55:00,
2013-11-02 08:00:00,30.9,29.9,30.17,WSW,256,0.0,0.0,96,0.00,,,0.00,VWS V14.01,2013-11-02 13:00:00,
2013-11-02 08:05:00,30.6,29.9,30.17,WSW,256,3.0,5.0,97,0.00,,,0.00,VWS V14.01,2013-11-02 13:05:00,
2013-11-02 08:10:00,30.6,29.6,30.17,WSW,256,2.0,5.0,96,0.00,,,0.00,VWS V14.01,2013-11-02 13:10:00,
2013-11-02 08:15:00,30.4,29.1,30.17,WSW,256,2.0,5.0,95,0.00,,,0.00,VWS V14.01,2013-11-02 13:15:00,
2013-11-02 08:20:00,30.3,29.3,30.19,WSW,256,2.0,5.0,96,0.00,,,0.00,VWS V14.01,2013-11-02 13:20:00,
2013-11-02 08:25:00,30.1,29.4,30.19,WSW,256,1.0,5.0,97,0.00,,,0.00,VWS V14.01,2013-11-02 13:25:00,
2013-11-02 08:30:00,30.0,29.5,30.19,WSW,256,2.0,5.0,98,0.00,,,0.00,VWS V14.01,2013-11-02 13:30:00,
2013-11-02 08:35:00,29.8,29.5,30.19,WSW,256,2.0,3.0,99,0.00,,,0.00,VWS V14.01,2013-11-02 13:35:00,
2013-11-02 08:40:00,30.1,29.4,30.19,WSW,256,2.0,5.0,97,0.00,,,0.00,VWS V14.01,2013-11-02 13:40:00,
2013-11-02 08:45:00,30.4,29.1,30.19,WSW,256,3.0,5.0,95,0.00,,,0.00,VWS V14.01,2013-11-02 13:45:00,
2013-11-02 08:50:00,30.7,29.2,30.19,WSW,256,3.0,5.0,94,0.00,,,0.00,VWS V14.01,2013-11-02 13:50:00,
2013-11-02 08:55:00,30.9,29.6,30.19,WSW,256,2.0,5.0,95,0.00,,,0.00,VWS V14.01,2013-11-02 13:55:00,
2013-11-02 09:00:00,31.0,29.2,30.19,WSW,256,3.0,5.0,93,0.00,,,0.00,VWS V14.01,2013-11-02 14:00:00,
2013-11-02 09:05:00,31.2,29.4,30.20,WSW,256,3.0,5.0,93,0.00,,,0.00,VWS V14.01,2013-11-02 14:05:00,
2013-11-02 09:10:00,31.3,29.5,30.20,WSW,256,2.0,6.0,93,0.00,,,0.00,VWS V14.01,2013-11-02 14:10:00,
2013-11-02 09:15:00,31.6,29.3,30.20,WSW,250,5.0,6.0,91,0.00,,,0.00,VWS V14.01,2013-11-02 14:15:00,
2013-11-02 09:20:00,32.1,29.5,30.20,WSW,248,5.0,7.0,90,0.00,,,0.00,VWS V14.01,2013-11-02 14:20:00,
2013-11-02 09:25:00,32.5,30.2,30.20,WSW,251,4.0,7.0,91,0.00,,,0.00,VWS V14.01,2013-11-02 14:25:00,
2013-11-02 09:30:00,32.9,29.7,30.20,WSW,251,5.0,7.0,88,0.00,,,0.00,VWS V14.01,2013-11-02 14:30:00,
2013-11-02 09:35:00,33.7,29.4,30.20,WSW,250,7.0,8.0,84,0.00,,,0.00,VWS V14.01,2013-11-02 14:35:00,
2013-11-02 09:40:00,34.3,29.7,30.20,WSW,251,3.0,8.0,83,0.00,,,0.00,VWS V14.01,2013-11-02 14:40:00,
2013-11-02 09:45:00,34.9,29.7,30.20,WSW,251,5.0,8.0,81,0.00,,,0.00,VWS V14.01,2013-11-02 14:45:00,
2013-11-02 09:50:00,35.5,30.0,30.20,WSW,253,2.0,3.0,80,0.00,,,0.00,VWS V14.01,2013-11-02 14:50:00,
2013-11-02 09:55:00,36.3,29.8,30.20,WSW,254,2.0,6.0,77,0.00,,,0.00,VWS V14.01,2013-11-02 14:55:00,
2013-11-02 10:00:00,36.9,28.0,30.20,WSW,254,5.0,8.0,70,0.00,,,0.00,VWS V14.01,2013-11-02 15:00:00,
2013-11-02 10:01:00,36.9,28.0,30.20,WSW,251,7.0,8.0,70,0.00,,,0.00,VWS V14.01,2013-11-02 15:01:00,
2013-11-02 10:06:00,37.6,28.7,30.20,WSW,253,5.0,6.0,70,0.00,,,0.00,VWS V14.01,2013-11-02 15:06:00,
2013-11-02 10:11:00,38.2,27.9,30.20,WSW,254,3.0,7.0,66,0.00,,,0.00,VWS V14.01,2013-11-02 15:11:00,
2013-11-02 10:16:00,38.8,26.5,30.20,WSW,250,2.0,7.0,61,0.00,,,0.00,VWS V14.01,2013-11-02 15:16:00,
2013-11-02 10:21:00,39.5,26.8,30.19,WSW,251,5.0,5.0,60,0.00,,,0.00,VWS V14.01,2013-11-02 15:21:00,
2013-11-02 10:26:00,40.1,26.5,30.19,WSW,251,7.0,7.0,58,0.00,,,0.00,VWS V14.01,2013-11-02 15:26:00,
2013-11-02 10:31:00,40.9,26.4,30.19,WSW,251,4.0,7.0,56,0.00,,,0.00,VWS V14.01,2013-11-02 15:31:00,
2013-11-02 10:36:00,41.8,25.0,30.19,WSW,253,5.0,5.0,51,0.00,,,0.00,VWS V14.01,2013-11-02 15:36:00,
2013-11-02 10:41:00,42.6,25.3,30.19,WSW,253,3.0,7.0,50,0.00,,,0.00,VWS V14.01,2013-11-02 15:41:00,
2013-11-02 10:46:00,43.3,23.9,30.19,WSW,254,2.0,7.0,46,0.00,,,0.00,VWS V14.01,2013-11-02 15:46:00,
2013-11-02 10:51:00,44.1,23.6,30.18,WSW,254,1.0,5.0,44,0.00,,,0.00,VWS V14.01,2013-11-02 15:51:00,
2013-11-02 10:56:00,44.8,24.8,30.18,WSW,254,4.0,5.0,45,0.00,,,0.00,VWS V14.01,2013-11-02 15:56:00,
2013-11-02 11:01:00,45.2,22.9,30.18,WSW,254,3.0,6.0,41,0.00,,,0.00,VWS V14.01,2013-11-02 16:01:00,
2013-11-02 11:06:00,45.5,23.2,30.17,WSW,251,1.0,7.0,41,0.00,,,0.00,VWS V14.01,2013-11-02 16:06:00,
2013-11-02 11:11:00,46.2,22.6,30.17,WSW,251,3.0,7.0,39,0.00,,,0.00,VWS V14.01,2013-11-02 16:11:00,
2013-11-02 11:16:00,46.7,25.4,30.17,WSW,251,6.0,7.0,43,0.00,,,0.00,VWS V14.01,2013-11-02 16:16:00,
2013-11-02 11:21:00,47.0,22.1,30.17,WSW,253,3.0,6.0,37,0.00,,,0.00,VWS V14.01,2013-11-02 16:21:00,
2013-11-02 11:26:00,47.4,23.7,30.17,WSW,254,2.0,7.0,39,0.00,,,0.00,VWS V14.01,2013-11-02 16:26:00,
2013-11-02 11:31:00,48.0,21.0,30.17,WSW,244,6.0,7.0,34,0.00,,,0.00,VWS V14.01,2013-11-02 16:31:00,
2013-11-02 11:36:00,48.6,22.2,30.16,WSW,246,5.0,7.0,35,0.00,,,0.00,VWS V14.01,2013-11-02 16:36:00,
2013-11-02 11:41:00,49.2,21.3,30.16,WSW,244,5.0,7.0,33,0.00,,,0.00,VWS V14.01,2013-11-02 16:41:00,
2013-11-02 11:46:00,49.5,19.4,30.16,WSW,250,5.0,7.0,30,0.00,,,0.00,VWS V14.01,2013-11-02 16:46:00,
2013-11-02 11:51:00,50.1,20.7,30.16,WSW,246,4.0,10.0,31,0.00,,,0.00,VWS V14.01,2013-11-02 16:51:00,
2013-11-02 11:56:00,50.7,18.0,30.16,WSW,250,5.0,10.0,27,0.00,,,0.00,VWS V14.01,2013-11-02 16:56:00,
2013-11-02 12:01:00,51.1,18.3,30.16,WSW,244,7.0,10.0,27,0.00,,,0.00,VWS V14.01,2013-11-02 17:01:00,
2013-11-02 12:06:00,51.4,17.7,30.15,WSW,254,5.0,10.0,26,0.00,,,0.00,VWS V14.01,2013-11-02 17:06:00,
2013-11-02 12:11:00,52.0,18.2,30.15,WSW,237,7.0,10.0,26,0.00,,,0.00,VWS V14.01,2013-11-02 17:11:00,
2013-11-02 12:16:00,52.3,19.3,30.15,SW,229,2.0,10.0,27,0.00,,,0.00,VWS V14.01,2013-11-02 17:16:00,
2013-11-02 12:21:00,53.2,19.2,30.14,WSW,237,7.0,10.0,26,0.00,,,0.00,VWS V14.01,2013-11-02 17:21:00,
2013-11-02 12:26:00,53.6,16.7,30.14,SW,234,7.0,10.0,23,0.00,,,0.00,VWS V14.01,2013-11-02 17:26:00,
2013-11-02 12:31:00,53.6,14.6,30.14,WSW,241,11.0,11.0,21,0.00,,,0.00,VWS V14.01,2013-11-02 17:31:00,
2013-11-02 12:36:00,53.6,11.1,30.14,WSW,244,6.0,10.0,18,0.00,,,0.00,VWS V14.01,2013-11-02 17:36:00,
2013-11-02 12:41:00,53.6,15.7,30.14,SW,224,8.0,12.0,22,0.00,,,0.00,VWS V14.01,2013-11-02 17:41:00,
2013-11-02 12:46:00,54.1,11.6,30.14,SW,229,9.0,12.0,18,0.00,,,0.00,VWS V14.01,2013-11-02 17:46:00,
2013-11-02 12:51:00,53.9,14.9,30.13,WSW,248,7.0,11.0,21,0.00,,,0.00,VWS V14.01,2013-11-02 17:51:00,
2013-11-02 12:56:00,54.4,15.3,30.13,SW,224,7.0,12.0,21,0.00,,,0.00,VWS V14.01,2013-11-02 17:56:00,
2013-11-02 13:01:00,54.5,14.3,30.13,SSW,199,10.0,12.0,20,0.00,,,0.00,VWS V14.01,2013-11-02 18:01:00,
2013-11-02 13:06:00,54.5,10.6,30.12,SW,234,8.0,14.0,17,0.00,,,0.00,VWS V14.01,2013-11-02 18:06:00,
2013-11-02 13:11:00,54.4,13.0,30.12,SW,236,6.0,14.0,19,0.00,,,0.00,VWS V14.01,2013-11-02 18:11:00,
2013-11-02 13:16:00,54.7,13.3,30.12,SSW,196,8.0,14.0,19,0.00,,,0.00,VWS V14.01,2013-11-02 18:16:00,
2013-11-02 13:21:00,54.8,12.1,30.12,SSW,195,6.0,11.0,18,0.00,,,0.00,VWS V14.01,2013-11-02 18:21:00,
2013-11-02 13:26:00,55.0,13.5,30.12,WSW,243,7.0,12.0,19,0.00,,,0.00,VWS V14.01,2013-11-02 18:26:00,
2013-11-02 13:31:00,54.8,12.1,30.12,SW,236,5.0,12.0,18,0.00,,,0.00,VWS V14.01,2013-11-02 18:31:00,
2013-11-02 13:36:00,54.8,8.1,30.11,South,184,7.0,12.0,15,0.00,,,0.00,VWS V14.01,2013-11-02 18:36:00,
2013-11-02 13:41:00,54.8,8.1,30.11,SSW,198,5.0,12.0,15,0.00,,,0.00,VWS V14.01,2013-11-02 18:41:00,
2013-11-02 13:46:00,55.4,8.5,30.11,South,191,5.0,12.0,15,0.00,,,0.00,VWS V14.01,2013-11-02 18:46:00,
2013-11-02 13:51:00,55.6,8.7,30.10,SSW,210,8.0,12.0,15,0.00,,,0.00,VWS V14.01,2013-11-02 18:51:00,
2013-11-02 13:56:00,55.6,10.1,30.10,SW,217,7.0,12.0,16,0.00,,,0.00,VWS V14.01,2013-11-02 18:56:00,
2013-11-02 14:01:00,55.6,8.7,30.10,SW,219,10.0,12.0,15,0.00,,,0.00,VWS V14.01,2013-11-02 19:01:00,
2013-11-02 14:06:00,55.4,8.5,30.09,SW,230,7.0,10.0,15,0.00,,,0.00,VWS V14.01,2013-11-02 19:06:00,
2013-11-02 14:11:00,55.4,8.5,30.09,SW,216,3.0,14.0,15,0.00,,,0.00,VWS V14.01,2013-11-02 19:11:00,
2013-11-02 14:16:00,55.6,11.5,30.09,SW,233,7.0,14.0,17,0.00,,,0.00,VWS V14.01,2013-11-02 19:16:00,
2013-11-02 14:21:00,55.4,12.6,30.09,SW,216,8.0,14.0,18,0.00,,,0.00,VWS V14.01,2013-11-02 19:21:00,
2013-11-02 14:26:00,55.6,14.0,30.09,SSW,199,5.0,14.0,19,0.00,,,0.00,VWS V14.01,2013-11-02 19:26:00,
2013-11-02 14:31:00,55.7,12.9,30.09,SW,224,10.0,14.0,18,0.00,,,0.00,VWS V14.01,2013-11-02 19:31:00,
2013-11-02 14:36:00,55.9,13.0,30.07,SW,216,10.0,12.0,18,0.00,,,0.00,VWS V14.01,2013-11-02 19:36:00,
2013-11-02 14:41:00,55.7,11.6,30.07,SSW,198,12.0,12.0,17,0.00,,,0.00,VWS V14.01,2013-11-02 19:41:00,
2013-11-02 14:46:00,55.6,14.0,30.07,SW,230,8.0,16.0,19,0.00,,,0.00,VWS V14.01,2013-11-02 19:46:00,
2013-11-02 14:51:00,55.6,11.5,30.06,WSW,246,8.0,12.0,17,0.00,,,0.00,VWS V14.01,2013-11-02 19:51:00,
2013-11-02 14:56:00,55.7,11.6,30.06,WSW,246,7.0,14.0,17,0.00,,,0.00,VWS V14.01,2013-11-02 19:56:00,
2013-11-02 15:01:00,56.2,14.5,30.06,SSW,212,11.0,14.0,19,0.00,,,0.00,VWS V14.01,2013-11-02 20:01:00,
2013-11-02 15:06:00,56.0,14.3,30.05,SSW,200,8.0,12.0,19,0.00,,,0.00,VWS V14.01,2013-11-02 20:06:00,
2013-11-02 15:11:00,56.5,13.5,30.05,SSW,200,7.0,12.0,18,0.00,,,0.00,VWS V14.01,2013-11-02 20:11:00,
2013-11-02 15:16:00,56.7,13.7,30.05,SSW,203,9.0,14.0,18,0.00,,,0.00,VWS V14.01,2013-11-02 20:16:00,
2013-11-02 15:21:00,56.6,14.8,30.03,SSW,193,10.0,10.0,19,0.00,,,0.00,VWS V14.01,2013-11-02 20:21:00,
2013-11-02 15:26:00,56.7,14.9,30.03,SSW,212,9.0,10.0,19,0.00,,,0.00,VWS V14.01,2013-11-02 20:26:00,
2013-11-02 15:31:00,57.0,15.2,30.03,SSW,212,10.0,13.0,19,0.00,,,0.00,VWS V14.01,2013-11-02 20:31:00,
2013-11-02 15:36:00,56.7,16.1,30.02,SW,229,8.0,13.0,20,0.00,,,0.00,VWS V14.01,2013-11-02 20:36:00,
2013-11-02 15:41:00,56.9,16.3,30.02,SW,223,5.0,13.0,20,0.00,,,0.00,VWS V14.01,2013-11-02 20:41:00,
2013-11-02 15:46:00,57.2,15.3,30.02,SSW,198,9.0,13.0,19,0.00,,,0.00,VWS V14.01,2013-11-02 20:46:00,
2013-11-02 15:51:00,57.5,15.6,30.01,SSW,205,12.0,13.0,19,0.00,,,0.00,VWS V14.01,2013-11-02 20:51:00,
2013-11-02 15:56:00,57.3,14.2,30.01,SSW,198,7.0,13.0,18,0.00,,,0.00,VWS V14.01,2013-11-02 20:56:00,
2013-11-02 16:01:00,57.6,14.4,30.01,SW,223,10.0,16.0,18,0.00,,,0.00,VWS V14.01,2013-11-02 21:01:00,
2013-11-02 16:06:00,57.8,13.3,30.01,SSW,192,10.0,13.0,17,0.00,,,0.00,VWS V14.01,2013-11-02 21:06:00,
2013-11-02 16:11:00,57.8,13.3,30.01,SW,217,11.0,13.0,17,0.00,,,0.00,VWS V14.01,2013-11-02 21:11:00,
2013-11-02 16:16:00,57.6,11.8,30.01,SSW,209,8.0,13.0,16,0.00,,,0.00,VWS V14.01,2013-11-02 21:16:00,
2013-11-02 16:21:00,58.0,14.8,30.00,SSW,213,11.0,11.0,18,0.00,,,0.00,VWS V14.01,2013-11-02 21:21:00,
2013-11-02 16:26:00,57.8,13.3,30.00,SSW,212,10.0,14.0,17,0.00,,,0.00,VWS V14.01,2013-11-02 21:26:00,
2013-11-02 16:31:00,58.0,13.4,30.00,SSW,195,7.0,14.0,17,0.00,,,0.00,VWS V14.01,2013-11-02 21:31:00,
2013-11-02 16:36:00,58.0,13.4,29.99,SSW,202,10.0,12.0,17,0.00,,,0.00,VWS V14.01,2013-11-02 21:36:00,
2013-11-02 16:41:00,58.0,13.4,29.99,SSW,195,13.0,17.0,17,0.00,,,0.00,VWS V14.01,2013-11-02 21:41:00,
2013-11-02 16:46:00,57.8,15.8,29.99,South,189,10.0,17.0,19,0.00,,,0.00,VWS V14.01,2013-11-02 21:46:00,
2013-11-02 16:51:00,58.0,14.8,29.98,South,181,12.0,12.0,18,0.00,,,0.00,VWS V14.01,2013-11-02 21:51:00,
2013-11-02 16:56:00,58.0,14.8,29.98,SW,215,7.0,14.0,18,0.00,,,0.00,VWS V14.01,2013-11-02 21:56:00,
2013-11-02 17:01:00,58.0,14.8,29.98,SSW,209,12.0,14.0,18,0.00,,,0.00,VWS V14.01,2013-11-02 22:01:00,
2013-11-02 17:05:00,58.0,14.8,29.98,South,191,8.0,12.0,18,0.00,,,0.00,VWS V14.01,2013-11-02 22:05:00,
2013-11-02 17:10:00,57.8,15.8,29.98,SSW,195,11.0,14.0,19,0.00,,,0.00,VWS V14.01,2013-11-02 22:10:00,
2013-11-02 17:15:00,57.6,14.4,29.98,SSW,203,14.0,16.0,18,0.00,,,0.00,VWS V14.01,2013-11-02 22:15:00,
2013-11-02 17:20:00,57.6,14.4,29.99,South,189,7.0,12.0,18,0.00,,,0.00,VWS V14.01,2013-11-02 22:20:00,
2013-11-02 17:25:00,57.6,15.7,29.99,SSW,199,10.0,15.0,19,0.00,,,0.00,VWS V14.01,2013-11-02 22:25:00,
2013-11-02 17:30:00,57.6,14.4,29.99,SSW,202,12.0,15.0,18,0.00,,,0.00,VWS V14.01,2013-11-02 22:30:00,
2013-11-02 17:35:00,57.5,15.6,29.98,SSW,206,12.0,12.0,19,0.00,,,0.00,VWS V14.01,2013-11-02 22:35:00,
2013-11-02 17:40:00,57.5,17.9,29.98,SSW,196,7.0,12.0,21,0.00,,,0.00,VWS V14.01,2013-11-02 22:40:00,
2013-11-02 17:46:00,57.3,16.6,29.98,South,181,6.0,12.0,20,0.00,,,0.00,VWS V14.01,2013-11-02 22:46:00,
2013-11-02 17:51:00,57.2,17.6,29.98,South,191,7.0,10.0,21,0.00,,,0.00,VWS V14.01,2013-11-02 22:51:00,
2013-11-02 17:56:00,57.0,18.5,29.98,SSW,195,7.0,10.0,22,0.00,,,0.00,VWS V14.01,2013-11-02 22:56:00,
2013-11-02 18:01:00,56.7,17.2,29.98,SSW,196,7.0,10.0,21,0.00,,,0.00,VWS V14.01,2013-11-02 23:01:00,
2013-11-02 18:06:00,56.5,18.1,29.97,SSW,193,6.0,8.0,22,0.00,,,0.00,VWS V14.01,2013-11-02 23:06:00,
2013-11-02 18:11:00,56.3,18.0,29.97,South,176,2.0,8.0,22,0.00,,,0.00,VWS V14.01,2013-11-02 23:11:00,
2013-11-02 18:16:00,56.2,18.9,29.97,South,178,4.0,8.0,23,0.00,,,0.00,VWS V14.01,2013-11-02 23:16:00,
2013-11-02 18:21:00,55.7,17.5,29.96,South,182,3.0,6.0,22,0.00,,,0.00,VWS V14.01,2013-11-02 23:21:00,
2013-11-02 18:26:00,55.3,19.1,29.96,South,182,5.0,8.0,24,0.00,,,0.00,VWS V14.01,2013-11-02 23:26:00,
2013-11-02 18:30:00,54.8,19.7,29.96,South,174,5.0,8.0,25,0.00,,,0.00,VWS V14.01,2013-11-02 23:30:00,
2013-11-02 18:36:00,54.2,20.1,29.97,South,175,4.0,7.0,26,0.00,,,0.00,VWS V14.01,2013-11-02 23:36:00,
2013-11-02 18:41:00,53.8,19.7,29.97,South,186,5.0,7.0,26,0.00,,,0.00,VWS V14.01,2013-11-02 23:41:00,
2013-11-02 18:46:00,53.2,19.2,29.97,South,186,5.0,7.0,26,0.00,,,0.00,VWS V14.01,2013-11-02 23:46:00,
2013-11-02 18:50:00,52.8,18.9,29.97,South,186,3.0,5.0,26,0.00,,,0.00,VWS V14.01,2013-11-02 23:50:00,
2013-11-02 18:55:00,52.5,19.5,29.97,South,186,2.0,5.0,27,0.00,,,0.00,VWS V14.01,2013-11-02 23:55:00,
2013-11-02 19:00:00,52.0,19.1,29.97,South,186,2.0,5.0,27,0.00,,,0.00,VWS V14.01,2013-11-03 00:00:00,
2013-11-02 19:05:00,51.3,18.5,29.96,South,186,3.0,3.0,27,0.00,,,0.00,VWS V14.01,2013-11-03 00:05:00,
2013-11-02 19:11:00,50.5,18.6,29.96,South,186,3.0,5.0,28,0.00,,,0.00,VWS V14.01,2013-11-03 00:11:00,
2013-11-02 19:16:00,49.9,18.9,29.96,South,186,5.0,5.0,29,0.00,,,0.00,VWS V14.01,2013-11-03 00:16:00,
2013-11-02 19:21:00,49.5,19.4,29.97,South,186,2.0,4.0,30,0.00,,,0.00,VWS V14.01,2013-11-03 00:21:00,
2013-11-02 19:26:00,48.9,19.6,29.97,South,186,3.0,4.0,31,0.00,,,0.00,VWS V14.01,2013-11-03 00:26:00,
2013-11-02 19:31:00,48.3,20.5,29.97,South,186,2.0,5.0,33,0.00,,,0.00,VWS V14.01,2013-11-03 00:31:00,
2013-11-02 19:35:00,47.9,21.6,29.97,South,186,2.0,5.0,35,0.00,,,0.00,VWS V14.01,2013-11-03 00:35:00,
2013-11-02 19:41:00,47.4,20.5,29.97,South,186,2.0,5.0,34,0.00,,,0.00,VWS V14.01,2013-11-03 00:41:00,
2013-11-02 19:46:00,47.1,20.9,29.97,South,186,2.0,5.0,35,0.00,,,0.00,VWS V14.01,2013-11-03 00:46:00,
2013-11-02 19:51:00,46.7,21.2,29.97,South,186,3.0,5.0,36,0.00,,,0.00,VWS V14.01,2013-11-03 00:51:00,
2013-11-02 19:56:00,46.5,21.0,29.97,South,186,2.0,5.0,36,0.00,,,0.00,VWS V14.01,2013-11-03 00:56:00,
2013-11-02 20:01:00,46.4,21.6,29.97,South,186,3.0,5.0,37,0.00,,,0.00,VWS V14.01,2013-11-03 01:01:00,
2013-11-02 20:06:00,46.4,21.6,29.97,South,186,3.0,5.0,37,0.00,,,0.00,VWS V14.01,2013-11-03 01:06:00,
2013-11-02 20:11:00,46.5,21.0,29.97,South,186,5.0,6.0,36,0.00,,,0.00,VWS V14.01,2013-11-03 01:11:00,
2013-11-02 20:16:00,47.0,20.8,29.97,South,186,5.0,7.0,35,0.00,,,0.00,VWS V14.01,2013-11-03 01:16:00,
2013-11-02 20:21:00,47.4,20.5,29.96,South,188,5.0,12.0,34,0.00,,,0.00,VWS V14.01,2013-11-03 01:21:00,
2013-11-02 20:26:00,47.7,20.7,29.96,SSW,195,8.0,12.0,34,0.00,,,0.00,VWS V14.01,2013-11-03 01:26:00,
2013-11-02 20:31:00,47.7,20.0,29.96,South,181,8.0,12.0,33,0.00,,,0.00,VWS V14.01,2013-11-03 01:31:00,
2013-11-02 20:36:00,47.9,20.2,29.96,South,191,5.0,8.0,33,0.00,,,0.00,VWS V14.01,2013-11-03 01:36:00,
2013-11-02 20:41:00,48.0,20.3,29.96,SSW,196,5.0,8.0,33,0.00,,,0.00,VWS V14.01,2013-11-03 01:41:00,
2013-11-02 20:46:00,48.0,20.3,29.96,South,181,7.0,10.0,33,0.00,,,0.00,VWS V14.01,2013-11-03 01:46:00,
2013-11-02 20:51:00,48.2,18.2,29.95,SSE,167,5.0,10.0,30,0.00,,,0.00,VWS V14.01,2013-11-03 01:51:00,
2013-11-02 20:56:00,48.3,19.1,29.95,South,179,5.0,11.0,31,0.00,,,0.00,VWS V14.01,2013-11-03 01:56:00,
2013-11-02 21:01:00,48.2,19.0,29.95,South,186,9.0,11.0,31,0.00,,,0.00,VWS V14.01,2013-11-03 02:01:00,
2013-11-02 21:06:00,48.2,18.2,29.94,SSE,160,6.0,12.0,30,0.00,,,0.00,VWS V14.01,2013-11-03 02:06:00,
2013-11-02 21:11:00,48.0,20.3,29.94,South,175,8.0,14.0,33,0.00,,,0.00,VWS V14.01,2013-11-03 02:11:00,
2013-11-02 21:16:00,47.7,20.7,29.94,South,185,9.0,14.0,34,0.00,,,0.00,VWS V14.01,2013-11-03 02:16:00,
2013-11-02 21:21:00,47.6,19.9,29.91,South,184,7.0,12.0,33,0.00,,,0.00,VWS V14.01,2013-11-03 02:21:00,
2013-11-02 21:26:00,47.6,19.9,29.91,South,181,7.0,13.0,33,0.00,,,0.00,VWS V14.01,2013-11-03 02:26:00,
2013-11-02 21:31:00,47.4,20.5,29.91,South,184,6.0,17.0,34,0.00,,,0.00,VWS V14.01,2013-11-03 02:31:00,
2013-11-02 21:35:00,47.1,19.5,29.91,South,179,6.0,14.0,33,0.00,,,0.00,VWS V14.01,2013-11-03 02:35:00,
2013-11-02 21:40:00,47.0,20.8,29.91,South,181,11.0,14.0,35,0.00,,,0.00,VWS V14.01,2013-11-03 02:40:00,
2013-11-02 21:45:00,46.8,20.6,29.91,SSW,196,9.0,14.0,35,0.00,,,0.00,VWS V14.01,2013-11-03 02:45:00,
2013-11-02 21:50:00,46.7,20.5,29.90,SSW,193,10.0,14.0,35,0.00,,,0.00,VWS V14.01,2013-11-03 02:50:00,
2013-11-02 21:55:00,46.5,21.6,29.90,SSW,203,14.0,18.0,37,0.00,,,0.00,VWS V14.01,2013-11-03 02:55:00,
2013-11-02 21:58:00,45.2,23.5,29.88,South,179,8.0,15.0,42,0.00,,,0.00,VWS V14.01,2013-11-03 02:58:00,
2013-11-02 21:59:00,45.2,23.5,29.88,SSW,193,7.0,15.0,42,0.00,,,0.00,VWS V14.01,2013-11-03 02:59:00,
2013-11-02 22:00:00,46.4,22.2,29.90,South,189,9.0,20.0,38,0.00,,,0.00,VWS V14.01,2013-11-03 03:00:00,
2013-11-02 22:01:00,45.2,23.5,29.87,South,178,7.0,14.0,42,0.00,,,0.00,VWS V14.01,2013-11-03 03:01:00,
2013-11-02 22:02:00,45.2,24.6,29.87,South,172,7.0,14.0,44,0.00,,,0.00,VWS V14.01,2013-11-03 03:02:00,
2013-11-02 22:03:00,45.2,23.5,29.87,South,186,7.0,14.0,42,0.00,,,0.00,VWS V14.01,2013-11-03 03:03:00,
2013-11-02 22:04:00,45.2,24.0,29.87,South,188,13.0,14.0,43,0.00,,,0.00,VWS V14.01,2013-11-03 03:04:00,
2013-11-02 22:05:00,46.4,21.6,29.90,SSE,161,10.0,12.0,37,0.00,,,0.00,VWS V14.01,2013-11-03 03:05:00,
2013-11-02 22:06:00,45.2,23.5,29.87,SSW,193,10.0,17.0,42,0.00,,,0.00,VWS V14.01,2013-11-03 03:06:00,
2013-11-02 22:07:00,45.2,23.5,29.87,SSW,192,10.0,17.0,42,0.00,,,0.00,VWS V14.01,2013-11-03 03:07:00,
2013-11-02 22:08:00,45.2,23.5,29.87,SSW,202,12.0,17.0,42,0.00,,,0.00,VWS V14.01,2013-11-03 03:08:00,
2013-11-02 22:09:00,45.2,23.5,29.87,South,188,10.0,17.0,42,0.00,,,0.00,VWS V14.01,2013-11-03 03:09:00,
2013-11-02 22:10:00,46.2,21.4,29.90,South,181,12.0,13.0,37,0.00,,,0.00,VWS V14.01,2013-11-03 03:10:00,
2013-11-02 22:15:00,46.4,22.2,29.90,South,186,12.0,17.0,38,0.00,,,0.00,VWS V14.01,2013-11-03 03:15:00,
2013-11-02 22:20:00,46.4,22.2,29.88,South,175,11.0,16.0,38,0.00,,,0.00,VWS V14.01,2013-11-03 03:20:00,
2013-11-02 22:25:00,46.4,22.2,29.88,South,184,6.0,16.0,38,0.00,,,0.00,VWS V14.01,2013-11-03 03:25:00,
2013-11-02 22:30:00,46.2,22.6,29.88,SSW,192,11.0,16.0,39,0.00,,,0.00,VWS V14.01,2013-11-03 03:30:00,
2013-11-02 22:35:00,46.0,22.5,29.88,South,191,9.0,13.0,39,0.00,,,0.00,VWS V14.01,2013-11-03 03:35:00,
2013-11-02 22:40:00,45.7,22.8,29.88,South,184,8.0,16.0,40,0.00,,,0.00,VWS V14.01,2013-11-03 03:40:00,
2013-11-02 22:45:00,45.5,23.8,29.88,South,169,7.0,16.0,42,0.00,,,0.00,VWS V14.01,2013-11-03 03:45:00,
2013-11-02 22:50:00,45.5,23.2,29.88,SSW,193,9.0,13.0,41,0.00,,,0.00,VWS V14.01,2013-11-03 03:50:00,
2013-11-02 22:55:00,45.4,23.1,29.88,South,184,7.0,14.0,41,0.00,,,0.00,VWS V14.01,2013-11-03 03:55:00,
2013-11-02 23:00:00,45.2,23.5,29.88,South,174,7.0,15.0,42,0.00,,,0.00,VWS V14.01,2013-11-03 04:00:00,
2013-11-02 23:04:00,45.2,23.5,29.87,SSW,200,11.0,14.0,42,0.00,,,0.00,VWS V14.01,2013-11-03 04:04:00,
2013-11-02 23:09:00,45.2,23.5,29.87,South,182,8.0,17.0,42,0.00,,,0.00,VWS V14.01,2013-11-03 04:09:00,
2013-11-02 23:14:00,45.2,23.5,29.87,SSW,193,10.0,17.0,42,0.00,,,0.00,VWS V14.01,2013-11-03 04:14:00,
2013-11-02 23:19:00,45.1,23.4,29.85,South,185,10.0,13.0,42,0.00,,,0.00,VWS V14.01,2013-11-03 04:19:00,
2013-11-02 23:24:00,44.9,23.8,29.85,South,185,7.0,16.0,43,0.00,,,0.00,VWS V14.01,2013-11-03 04:24:00,
2013-11-02 23:29:00,44.8,24.8,29.85,SSW,192,8.0,16.0,45,0.00,,,0.00,VWS V14.01,2013-11-03 04:29:00,
2013-11-02 23:34:00,44.6,24.0,29.84,SSE,164,7.0,12.0,44,0.00,,,0.00,VWS V14.01,2013-11-03 04:34:00,
2013-11-02 23:39:00,44.6,24.6,29.84,South,188,11.0,17.0,45,0.00,,,0.00,VWS V14.01,2013-11-03 04:39:00,
2013-11-02 23:44:00,44.6,24.6,29.84,South,175,10.0,17.0,45,0.00,,,0.00,VWS V14.01,2013-11-03 04:44:00,
2013-11-02 23:49:00,44.8,24.2,29.83,SSE,165,7.0,13.0,44,0.00,,,0.00,VWS V14.01,2013-11-03 04:49:00,
2013-11-02 23:54:00,44.6,24.6,29.83,South,184,10.0,14.0,45,0.00,,,0.00,VWS V14.01,2013-11-03 04:54:00,
2013-11-02 23:59:00,44.3,25.4,29.83,South,184,10.0,16.0,47,0.00,,,0.00,VWS V14.01,2013-11-03 04:59:00,